This demonstration page uses our WeatherBlox Daily Observations layout. Learn more.

38.89511, -77.03637

Hourly Observations for February 6, 2015

Temp ( °F °C ) Dew Point ( °F °C ) Humidity (%) Winds ( mph kmh ) Pressure ( in mb ) Visibility ( mi km ) Precip ( " mm )
12:52 am 00:52 Clear 19 -7 0 -18 42 42 NNW 12 19 30.36 1028 10 16.09344 0 0
1:52 am 01:52 Clear 19 -7 -2 -19 38 38 NNW 9 15 30.36 1028 10 16.09344 0 0
2:52 am 02:52 Clear 19 -7 0 -18 42 42 N 8 13 30.36 1028 10 16.09344 0 0
3:52 am 03:52 Clear 19 -7 0 -18 42 42 NNW 6 9 30.36 1028 10 16.09344 0 0
4:52 am 04:52 Clear 19 -7 0 -18 42 42 N 3 6 30.36 1028 10 16.09344 0 0
5:52 am 05:52 Clear 19 -7 -2 -19 38 38 Calm 30.36 1028 10 16.09344 0 0
6:52 am 06:52 Mostly Clear 18 -8 0 -18 45 45 SW 3 6 30.36 1028 10 16.09344 0 0
7:52 am 07:52 Mostly Cloudy 19 -7 0 -18 42 42 SW 8 13 30.36 1028 10 16.09344 0 0
8:52 am 08:52 Mostly Cloudy 21 -6 0 -18 38 38 SW 12 19 30.36 1028 10 16.09344 0 0
9:52 am 09:52 Mostly Cloudy 25 -4 3 -16 39 39 SSW 14 22 30.33 1027 10 16.09344 0 0
10:52 am 10:52 Mostly Cloudy 27 -3 1 -17 33 33 SW 10 17 30.33 1027 10 16.09344 0 0
11:52 am 11:52 Mostly Cloudy 30 -1 1 -17 29 29 SW 13 20 30.27 1025 10 16.09344 0 0
12:52 pm 12:52 Cloudy 32 0 3 -16 29 29 SSW 9 15 30.24 1024 10 16.09344 0 0
1:52 pm 13:52 Cloudy 34 1 3 -16 27 27 SW 10 17 30.21 1023 10 16.09344 0 0
2:52 pm 14:52 Cloudy 36 2 3 -16 25 25 SSW 8 13 30.21 1023 10 16.09344 0 0
3:52 pm 15:52 Mostly Cloudy 36 2 3 -16 25 25 SSW 12 19 30.18 1022 10 16.09344 0 0
4:52 pm 16:52 Mostly Cloudy 37 3 3 -16 23 23 SSW 8 13 30.18 1022 10 16.09344 0 0
5:52 pm 17:52 Partly Cloudy 36 2 5 -15 27 27 SSW 9 15 30.18 1022 10 16.09344 0 0
6:52 pm 18:52 Mostly Clear 34 1 7 -14 32 32 SW 7 11 30.21 1023 10 16.09344 0 0
7:52 pm 19:52 Mostly Clear 36 2 9 -13 32 32 WSW 3 6 30.21 1023 10 16.09344 0 0
8:52 pm 20:52 Clear 34 1 9 -13 35 35 S 3 6 30.21 1023 10 16.09344 0 0
9:52 pm 21:52 Clear 32 0 18 -8 55 55 Calm 30.21 1023 10 16.09344 0 0
10:52 pm 22:52 Clear 32 0 14 -10 47 47 Calm 30.21 1023 10 16.09344 0 0
11:52 pm 23:52 Partly Cloudy 30 -1 19 -7 64 64 NE 3 6 30.21 1023 10 16.09344 0 0

Powered by AerisWeather